TPC142 KMRY-KBUR

Flight info

Callsign TPC142
Flight time N/A
Altitude 35000
Route MRY5 SERFR RDHOT ROKKR3
Aircraft C750/M-SBDE3FGHRWXY/S

Departure

Time 2026-04-20 20:57
Airport Monterey Regional Airport (KMRY)

Arrival

Time N/A
Airport Hollywood Burbank/Bob Hope Airport (KBUR)
Time Latitude Longitude Altitude Speed Heading
2026-04-20 20:34 36.58840 -121.85226 183 ft 0 kts 204°
2026-04-20 20:49 36.58839 -121.85227 183 ft 1 kts 202°
2026-04-20 20:50 36.58836 -121.85223 183 ft 0 kts 145°
2026-04-20 20:50 36.58837 -121.85219 183 ft 2 kts 97°
2026-04-20 20:50 36.58856 -121.85137 186 ft 18 kts 104°
2026-04-20 20:50 36.58785 -121.84934 195 ft 34 kts 111°
2026-04-20 20:51 36.58708 -121.84698 205 ft 24 kts 115°
2026-04-20 20:51 36.58662 -121.84594 209 ft 18 kts 122°
2026-04-20 20:51 36.58614 -121.84464 215 ft 16 kts 112°
2026-04-20 20:51 36.58572 -121.84342 220 ft 16 kts 113°
2026-04-20 20:52 36.58528 -121.84213 226 ft 17 kts 112°
2026-04-20 20:52 36.58479 -121.84069 234 ft 20 kts 113°
2026-04-20 20:52 36.58422 -121.83900 240 ft 23 kts 112°
2026-04-20 20:52 36.58362 -121.83717 249 ft 19 kts 111°
2026-04-20 20:53 36.58322 -121.83604 253 ft 12 kts 112°
2026-04-20 20:53 36.58295 -121.83517 257 ft 10 kts 107°
2026-04-20 20:53 36.58291 -121.83493 258 ft 0 kts 98°
2026-04-20 20:55 36.58291 -121.83492 258 ft 1 kts 98°
2026-04-20 20:56 36.58286 -121.83435 260 ft 9 kts 92°
2026-04-20 20:56 36.58335 -121.83377 261 ft 13 kts 327°
2026-04-20 20:56 36.58397 -121.83546 254 ft 62 kts 292°
2026-04-20 20:56 36.58714 -121.84453 372 ft 139 kts 294°
2026-04-20 20:57 36.59132 -121.85543 1098 ft 143 kts 295°
2026-04-20 20:57 36.59556 -121.86785 1686 ft 167 kts 293°
2026-04-20 20:57 36.60456 -121.87799 2303 ft 192 kts 341°
2026-04-20 20:57 36.61794 -121.88160 3218 ft 200 kts 347°
2026-04-20 20:58 36.63163 -121.88633 4185 ft 209 kts 342°
2026-04-20 20:58 36.64549 -121.89217 4838 ft 231 kts 340°
2026-04-20 20:58 36.66138 -121.89893 5464 ft 258 kts 338°
2026-04-20 20:58 36.67933 -121.90641 5981 ft 285 kts 339°
2026-04-20 20:59 36.69805 -121.91606 6700 ft 293 kts 323°
2026-04-20 20:59 36.71087 -121.93479 7720 ft 282 kts 291°
2026-04-20 20:59 36.71793 -121.95740 8883 ft 281 kts 283°
2026-04-20 20:59 36.72431 -121.98069 9948 ft 287 kts 282°
2026-04-20 21:00 36.73090 -122.00478 10578 ft 305 kts 282°
2026-04-20 21:00 36.73795 -122.03096 10875 ft 332 kts 283°
2026-04-20 21:00 36.74542 -122.05942 11119 ft 355 kts 282°
2026-04-20 21:00 36.75309 -122.08886 11929 ft 357 kts 282°
2026-04-20 21:01 36.76029 -122.11864 12598 ft 359 kts 276°
2026-04-20 21:01 36.75899 -122.14875 13252 ft 346 kts 248°
2026-04-20 21:01 36.74872 -122.17537 14054 ft 339 kts 233°
2026-04-20 21:01 36.73401 -122.19804 14781 ft 335 kts 221°
2026-04-20 21:02 36.71570 -122.21582 15526 ft 333 kts 210°
2026-04-20 21:02 36.69473 -122.22795 16278 ft 333 kts 199°
2026-04-20 21:02 36.67202 -122.23387 17046 ft 336 kts 188°
2026-04-20 21:02 36.64837 -122.23315 17810 ft 344 kts 176°
2026-04-20 21:03 36.62487 -122.22532 18534 ft 355 kts 165°
2026-04-20 21:03 36.60315 -122.21042 19183 ft 370 kts 152°
2026-04-20 21:03 36.58401 -122.18796 19851 ft 387 kts 138°
2026-04-20 21:03 36.56737 -122.16129 20528 ft 393 kts 135°
2026-04-20 21:04 36.55067 -122.13402 21208 ft 398 kts 135°
2026-04-20 21:04 36.53369 -122.10660 21891 ft 402 kts 136°
2026-04-20 21:04 36.51638 -122.07884 22559 ft 407 kts 136°
2026-04-20 21:04 36.49896 -122.05083 23218 ft 411 kts 135°
2026-04-20 21:05 36.48137 -122.02245 23817 ft 416 kts 135°
2026-04-20 21:05 36.46359 -121.99386 24379 ft 420 kts 135°
2026-04-20 21:05 36.44586 -121.96541 24932 ft 423 kts 135°
2026-04-20 21:05 36.42773 -121.93634 25487 ft 426 kts 135°
2026-04-20 21:06 36.40952 -121.90712 26041 ft 430 kts 135°
2026-04-20 21:06 36.39115 -121.87770 26600 ft 433 kts 135°
2026-04-20 21:06 36.37257 -121.84799 27117 ft 437 kts 134°
2026-04-20 21:06 36.35388 -121.81811 27624 ft 441 kts 134°
2026-04-20 21:07 36.33499 -121.78788 28161 ft 444 kts 134°
2026-04-20 21:07 36.31597 -121.75753 28716 ft 447 kts 134°
2026-04-20 21:07 36.29676 -121.72694 29194 ft 451 kts 134°
2026-04-20 21:07 36.27760 -121.69642 29699 ft 455 kts 134°
2026-04-20 21:08 36.25805 -121.66526 30190 ft 459 kts 133°
2026-04-20 21:08 36.23837 -121.63394 30658 ft 462 kts 133°
2026-04-20 21:08 36.21858 -121.60251 31163 ft 463 kts 133°
2026-04-20 21:08 36.19889 -121.57121 31890 ft 459 kts 133°
2026-04-20 21:09 36.17930 -121.54012 32609 ft 456 kts 133°
2026-04-20 21:09 36.15982 -121.50929 33305 ft 453 kts 133°
2026-04-20 21:09 36.14062 -121.47891 33978 ft 451 kts 133°
2026-04-20 21:09 36.12129 -121.44832 34573 ft 448 kts 133°
2026-04-20 21:10 36.10210 -121.41798 35019 ft 449 kts 133°
2026-04-20 21:10 36.08250 -121.38712 35017 ft 462 kts 133°
2026-04-20 21:10 36.06334 -121.35445 35012 ft 478 kts 127°
2026-04-20 21:10 36.04651 -121.31852 35021 ft 486 kts 124°
2026-04-20 21:11 36.03038 -121.28300 34572 ft 463 kts 124°
2026-04-20 21:11 36.01457 -121.24909 34095 ft 450 kts 125°
2026-04-20 21:11 35.99865 -121.21583 33543 ft 451 kts 126°
2026-04-20 21:11 35.98283 -121.18241 33024 ft 457 kts 125°
2026-04-20 21:12 35.96694 -121.14815 32513 ft 460 kts 124°
2026-04-20 21:12 35.95095 -121.11384 32015 ft 463 kts 125°
2026-04-20 21:12 35.93470 -121.07948 31511 ft 465 kts 125°
2026-04-20 21:12 35.91812 -121.04454 31072 ft 479 kts 125°
2026-04-20 21:13 35.88473 -120.97341 31056 ft 485 kts 125°
2026-04-20 21:13 35.85057 -120.90123 31060 ft 487 kts 125°
2026-04-20 21:14 35.81633 -120.82887 31064 ft 488 kts 125°
2026-04-20 21:14 35.78202 -120.75660 31058 ft 489 kts 125°
2026-04-20 21:15 35.74760 -120.68420 31058 ft 489 kts 125°
2026-04-20 21:15 35.71337 -120.61238 31058 ft 489 kts 125°
2026-04-20 21:16 35.67888 -120.54016 31061 ft 489 kts 125°
2026-04-20 21:16 35.64424 -120.46778 31057 ft 490 kts 125°
2026-04-20 21:17 35.60984 -120.39603 31046 ft 490 kts 125°
2026-04-20 21:17 35.56709 -120.33318 31046 ft 477 kts 143°